Location: ??
(31.9467°N, 34.8903°E)
Time: 10:49:09
(UTC+00:00)

Cosmos 1980 Rocket - Pass Details

Date: 29 October 2020
Orbit: 831 x 848 km, 71.0° (Epoch: 27 November)

Event Time Altitude Azimuth Distance (km) Brightness Sun altitude
Rises 15:43:51 0° 181° (S) 3,378 5.5 -11.3°
Reaches altitude 10° 15:46:24 10° 174° (S) 2,445 4.6 -11.9°
Maximum altitude 15:51:38 42° 105° (ESE) 1,180 2.5 -13.0°
Drops below altitude 10° 15:56:52 10° 36° (NE) 2,446 4.2 -14.1°
Enters shadow 15:57:40 - 33° (NNE) 2,730 4.5 -14.2°
